TimeCST,TemperatureF,Dew PointF,Humidity,Sea Level PressureIn,VisibilityMPH,Wind Direction,Wind SpeedMPH,Gust SpeedMPH,PrecipitationIn,Events,Conditions,WindDirDegrees,DateUTC
12:53 AM,23.0,12.9,65,29.63,10.0,SSW,10.4,-,N/A,,Partly Cloudy,210,2014-01-16 06:53:00
1:53 AM,23.0,14.0,68,29.62,10.0,SSW,9.2,-,N/A,,Mostly Cloudy,200,2014-01-16 07:53:00
2:53 AM,23.0,14.0,68,29.57,10.0,SSW,8.1,-,N/A,,Partly Cloudy,210,2014-01-16 08:53:00
3:53 AM,23.0,14.0,68,29.55,10.0,SSW,6.9,-,N/A,,Partly Cloudy,210,2014-01-16 09:53:00
4:53 AM,25.0,16.0,69,29.52,10.0,SSW,8.1,-,N/A,,Scattered Clouds,200,2014-01-16 10:53:00
5:53 AM,19.9,15.1,81,29.51,10.0,Calm,Calm,-,N/A,,Mostly Cloudy,0,2014-01-16 11:53:00
6:53 AM,23.0,17.1,78,29.50,10.0,WSW,3.5,-,N/A,,Overcast,240,2014-01-16 12:53:00
7:31 AM,24.1,19.0,81,29.46,2.0,Calm,Calm,-,0.00,Snow,Light Snow,0,2014-01-16 13:31:00
7:34 AM,24.1,19.0,81,29.46,1.5,Calm,Calm,-,0.00,Snow,Light Snow,0,2014-01-16 13:34:00
7:51 AM,26.6,21.2,80,29.46,0.8,SW,4.6,-,0.00,Snow,Light Snow,230,2014-01-16 13:51:00
7:53 AM,26.1,21.9,84,29.49,0.8,SW,3.5,-,0.00,Snow,Light Snow,230,2014-01-16 13:53:00
8:44 AM,27.0,24.1,89,29.46,1.2,Calm,Calm,-,0.02,Snow,Light Snow,0,2014-01-16 14:44:00
8:53 AM,27.0,24.1,89,29.49,1.5,WSW,3.5,-,0.02,Snow,Light Snow,240,2014-01-16 14:53:00
9:00 AM,27.0,25.0,92,29.46,0.8,WSW,3.5,-,0.00,Snow,Light Snow,250,2014-01-16 15:00:00
9:40 AM,28.0,25.0,88,29.46,1.0,SW,4.6,-,0.01,Snow,Light Snow,230,2014-01-16 15:40:00
9:53 AM,28.9,26.1,89,29.49,1.2,SW,5.8,-,0.01,Snow,Light Snow,220,2014-01-16 15:53:00
10:08 AM,30.0,26.1,85,29.45,1.8,SW,5.8,-,0.00,Snow,Light Snow,220,2014-01-16 16:08:00
10:15 AM,30.0,27.0,88,29.45,2.5,SSW,4.6,-,0.00,Snow,Light Snow,210,2014-01-16 16:15:00
10:22 AM,30.0,27.0,88,29.45,1.5,SSW,5.8,-,0.00,Snow,Light Snow,210,2014-01-16 16:22:00
10:27 AM,30.9,28.0,89,29.45,1.0,SSW,6.9,-,0.00,Snow,Light Snow,210,2014-01-16 16:27:00
10:31 AM,30.9,28.0,89,29.45,1.5,SSW,6.9,-,0.00,Snow,Light Snow,210,2014-01-16 16:31:00
10:33 AM,30.9,28.0,89,29.45,2.0,SSW,6.9,-,0.00,Snow,Light Snow,210,2014-01-16 16:33:00
10:35 AM,30.9,28.0,89,29.45,4.0,SSW,5.8,-,0.00,Snow,Light Snow,210,2014-01-16 16:35:00
10:53 AM,32.0,28.9,88,29.48,2.5,SSW,6.9,-,0.00,Snow,Light Snow,210,2014-01-16 16:53:00
11:03 AM,33.1,28.9,85,29.44,1.5,SSW,8.1,-,0.00,Snow,Light Snow,210,2014-01-16 17:03:00
11:20 AM,33.1,30.0,89,29.44,3.0,SW,5.8,-,0.00,Snow,Light Snow,220,2014-01-16 17:20:00
11:49 AM,35.6,30.2,81,29.43,1.8,SW,8.1,-,0.00,Snow,Light Snow,230,2014-01-16 17:49:00
11:53 AM,35.1,30.9,85,29.53,1.5,SW,6.9,-,0.00,Snow,Light Snow,230,2014-01-16 17:53:00
12:07 PM,34.0,30.9,89,29.42,3.0,SW,8.1,-,0.01,Snow,Light Snow,220,2014-01-16 18:07:00
12:51 PM,33.8,26.6,75,29.44,9.0,WNW,19.6,33.4,0.01,Rain,Light Rain,290,2014-01-16 18:51:00
12:53 PM,32.0,25.0,75,29.47,10.0,WNW,17.3,33.4,0.01,Rain,Light Rain,290,2014-01-16 18:53:00
1:34 PM,32.0,19.0,59,29.46,10.0,West,11.5,18.4,0.00,,Overcast,280,2014-01-16 19:34:00
1:53 PM,30.9,16.0,54,29.51,10.0,WNW,13.8,26.5,0.00,,Overcast,290,2014-01-16 19:53:00
2:37 PM,28.9,18.0,64,29.51,10.0,WNW,15.0,25.3,0.00,,Overcast,290,2014-01-16 20:37:00
2:49 PM,28.4,14.0,55,29.52,9.0,WNW,15.0,28.8,0.00,,Overcast,300,2014-01-16 20:49:00
2:53 PM,28.0,14.0,56,29.56,9.0,WNW,16.1,25.3,0.00,,Overcast,300,2014-01-16 20:53:00
3:53 PM,24.1,9.0,53,29.61,10.0,West,17.3,26.5,0.00,,Overcast,270,2014-01-16 21:53:00
4:53 PM,21.0,7.0,55,29.65,10.0,West,13.8,24.2,N/A,,Partly Cloudy,280,2014-01-16 22:53:00
5:53 PM,19.0,6.1,57,29.69,10.0,WNW,10.4,-,0.00,,Partly Cloudy,290,2014-01-16 23:53:00
6:53 PM,17.1,5.0,59,29.72,10.0,NW,16.1,21.9,N/A,,Overcast,310,2014-01-17 00:53:00
7:53 PM,16.0,5.0,62,29.75,10.0,NW,10.4,-,N/A,,Overcast,310,2014-01-17 01:53:00
8:48 PM,15.8,3.2,58,29.74,10.0,WNW,12.7,-,N/A,,Overcast,300,2014-01-17 02:48:00
8:53 PM,15.1,3.9,61,29.78,10.0,NW,10.4,-,N/A,,Overcast,320,2014-01-17 02:53:00
9:53 PM,14.0,1.9,59,29.80,10.0,NW,11.5,24.2,0.00,,Overcast,320,2014-01-17 03:53:00
10:07 PM,12.9,1.0,59,29.77,10.0,NNW,11.5,-,N/A,,Overcast,330,2014-01-17 04:07:00
10:53 PM,12.0,-0.0,59,29.81,10.0,NW,9.2,-,N/A,,Overcast,310,2014-01-17 04:53:00
11:53 PM,12.0,-0.0,59,29.82,10.0,WNW,6.9,-,N/A,,Overcast,300,2014-01-17 05:53:00